Location: Luxembourg
(49.6117°N, 6.1300°E)
Time: 01:20:05
(UTC+01:00)

N. Korean satellite - Pass Details

Date: 09 December 2021
Orbit: 446 x 492 km, 97.3° (Epoch: 16 January)

Event Time Altitude Azimuth Distance (km) Brightness Sun altitude
Rises 17:05:29 0° 174° (S) 2,510 10.5 -4.9°
Reaches altitude 10° 17:07:33 10° 178° (S) 1,628 9.6 -5.2°
Maximum altitude 17:11:01 60° 259° (W) 539 7.2 -5.7°
Drops below altitude 10° 17:14:27 10° 340° (NNW) 1,616 9.1 -6.2°
Sets 17:16:30 0° 344° (NNW) 2,488 10.0 -6.5°
